EW4785 Weather Reports


Display with metric or nautical units.
time (UTC)temp
F
wind
direction
speed
MPH
gust
MPH
rain 1hr
in
rain 24hr
in
rain mn
in
humidity
%
barometer
mb
20260505231524 76 185 3.0 8.0 0.00 0.00 0.00 41 1012.8
20260505230016 77 179 6.0 12.0 0.00 0.00 0.00 39 1012.8
20260505224515 78 155 5.0 14.0 0.00 0.00 0.00 39 1012.8
20260505223013 78 164 4.0 10.0 0.00 0.00 0.00 40 1013.0
20260505221512 77 237 3.0 8.0 0.00 0.00 0.00 40 1013.1
20260505220011 79 140 5.0 12.0 0.00 0.00 0.00 40 1013.1
20260505214512 79 201 4.0 10.0 0.00 0.00 0.00 39 1013.2
20260505213008 79 173 5.0 10.0 0.00 0.00 0.00 39 1013.4
20260505211508 78 215 4.0 12.0 0.00 0.00 0.00 38 1013.5
20260505210006 80 202 5.0 11.0 0.00 0.00 0.00 39 1013.4
20260505204505 80 201 5.0 10.0 0.00 0.00 0.00 38 1013.4
20260505203018 80 215 6.0 13.0 0.00 0.00 0.00 36 1013.4
20260505201501 79 163 3.0 12.0 0.00 0.00 0.00 38 1013.6
20260505200000 80 260 4.0 11.0 0.00 0.00 0.00 39 1013.9
20260505194601 80 121 4.0 9.0 0.00 0.00 0.00 40 1014.0
20260505193119 78 221 5.0 14.0 0.00 0.00 0.00 40 1014.2
20260505191559 79 192 4.0 11.0 0.00 0.00 0.00 41 1014.3
20260505190051 78 234 2.0 10.0 0.00 0.00 0.00 42 1014.8
20260505184554 78 195 4.0 10.0 0.00 0.00 0.00 41 1015.0
20260505183049 78 195 3.0 9.0 0.00 0.00 0.00 39 1015.3
20260505181547 78 215 4.0 10.0 0.00 0.00 0.00 41 1015.6
20260505180046 78 205 4.0 7.0 0.00 0.00 0.00 40 1015.6
20260505174545 79 234 4.0 11.0 0.00 0.00 0.00 38 1015.8
20260505173042 78 109 2.0 12.0 0.00 0.00 0.00 39 1015.7
20260505171548 77 255 3.0 11.0 0.00 0.00 0.00 39 1015.8
20260505170042 77 171 5.0 12.0 0.00 0.00 0.00 38 1016.0
20260505164541 77 240 2.0 12.0 0.00 0.00 0.00 41 1016.1
20260505163041 76 142 4.0 11.0 0.00 0.00 0.00 40 1016.2
20260505161536 76 242 3.0 13.0 0.00 0.00 0.00 44 1016.5
20260505153037 74 176 3.0 8.0 0.00 0.00 0.00 49 1016.6
20260505151528 73 201 3.0 8.0 0.00 0.00 0.00 50 1016.6
20260505124600 60 244 0.0 5.0 0.00 0.00 0.00 77 1016.5
20260505123109 58 213 1.0 5.0 0.00 0.00 0.00 78 1016.7
20260505121552 57 271 1.0 4.0 0.00 0.00 0.00 80 1016.6
20260505120057 56 180 1.0 4.0 0.00 0.00 0.00 81 1016.5
20260505114552 55 174 1.0 5.0 0.00 0.00 0.00 83 1016.3
20260505113052 54 164 0.0 2.0 0.00 0.00 0.00 83 1016.2
20260505111548 54 173 0.0 2.0 0.00 0.00 0.00 82 1016.3
20260505101542 54 175 0.0 1.0 0.00 0.00 0.00 81 1016.0
20260505100040 54 175 0.0 2.0 0.00 0.00 0.00 80 1015.7
20260505094537 54 169 0.0 3.0 0.00 0.00 0.00 80 1015.6
20260505093035 54 185 0.0 2.0 0.00 0.00 0.00 79 1015.4
20260505091534 55 176 1.0 3.0 0.00 0.00 0.00 78 1015.2
20260505090031 55 182 0.0 3.0 0.00 0.00 0.00 77 1015.1
20260505084543 56 182 0.0 3.0 0.00 0.00 0.00 76 1015.1
20260505083043 56 188 0.0 3.0 0.00 0.00 0.00 75 1015.1
20260505081527 56 190 0.0 3.0 0.00 0.00 0.00 75 1015.1
20260505080034 57 167 1.0 4.0 0.00 0.00 0.00 74 1015.2
20260505074522 57 175 1.0 3.0 0.00 0.00 0.00 73 1014.9
20260505073034 57 182 0.0 5.0 0.00 0.00 0.00 73 1015.0
20260505071521 57 189 1.0 4.0 0.00 0.00 0.00 72 1015.0
20260505070018 58 173 0.0 5.0 0.00 0.00 0.00 71 1014.9
20260505064516 58 178 1.0 4.0 0.00 0.00 0.00 70 1015.0
20260505063013 59 171 2.0 6.0 0.00 0.00 0.00 68 1014.9
20260505061519 59 170 1.0 5.0 0.00 0.00 0.00 67 1014.9
20260505060015 59 211 2.0 7.0 0.00 0.00 0.00 66 1014.9
20260505054508 60 178 2.0 7.0 0.00 0.00 0.00 65 1014.9
20260505053006 60 174 1.0 6.0 0.00 0.00 0.00 63 1015.1
20260505051504 60 157 1.0 8.0 0.00 0.00 0.00 61 1015.1
20260505041603 62 151 1.0 6.0 0.00 0.00 0.00 55 1015.2
20260505040056 62 174 1.0 7.0 0.00 0.00 0.00 55 1015.1
20260505034552 62 183 0.0 5.0 0.00 0.00 0.00 54 1015.1
20260505033052 62 173 1.0 3.0 0.00 0.00 0.00 53 1015.2
20260505031553 63 174 1.0 5.0 0.00 0.00 0.00 52 1015.2
20260505030109 63 177 1.0 6.0 0.00 0.00 0.00 51 1015.2
20260505024553 63 183 1.0 4.0 0.00 0.00 0.00 50 1015.1
20260505023049 64 169 0.0 2.0 0.00 0.00 0.00 48 1015.1
20260505021551 64 169 0.0 5.0 0.00 0.00 0.00 46 1015.0
20260505020048 64 147 1.0 3.0 0.00 0.00 0.00 45 1014.9
20260505014603 64 169 0.0 2.0 0.00 0.00 0.00 44 1014.8
20260505013051 65 169 0.0 2.0 0.00 0.00 0.00 43 1014.6
20260505011547 65 169 0.0 2.0 0.00 0.00 0.00 42 1014.2
20260505010055 66 142 0.0 2.0 0.00 0.00 0.00 42 1014.1
20260505004552 67 126 0.0 1.0 0.00 0.00 0.00 42 1014.0
20260505003055 68 126 0.0 0.0 0.00 0.00 0.00 40 1013.8
20260505001546 70 220 0.0 1.0 0.00 0.00 0.00 39 1013.6
20260505000046 72 220 0.0 1.0 0.00 0.00 0.00 37 1013.6
20260504234545 73 183 0.0 3.0 0.00 0.00 0.00 35 1013.5
20260504233045 74 196 0.0 6.0 0.00 0.00 0.00 34 1013.4